Theta_e
326 319 314 307 300 297 295 297 302 305 307 310 319 319 318 321 317 310 330 339 349 353 360 362 363 363 362 361 360 360 359 359 359 359 359 359 359 359 357 356 355 351 347 344 343 342 340 339 338
322 317 311 301 295 293 298 302 303 305 309 310 314 317 316 318 329 330 332 343 348 355 359 359 363 363 362 361 360 359 359 359 359 359 359 359 358 357 355 355 354 350 346 344 343 341 340 339 338
310 316 305 296 293 294 298 306 305 308 310 309 307 316 317 319 330 332 337 344 351 355 358 359 363 362 362 361 360 360 359 359 359 359 358 358 358 358 357 355 354 349 346 344 342 341 341 340 339
307 307 303 295 291 298 303 311 310 309 310 312 310 310 316 319 325 336 342 348 350 354 357 361 362 362 361 361 360 360 360 359 359 358 358 358 356 357 357 355 354 352 346 344 342 342 342 340 338
307 303 294 292 293 299 303 305 311 310 308 310 310 308 309 315 333 340 342 345 347 350 355 360 362 362 362 361 361 360 360 359 359 359 358 357 357 356 356 355 353 350 347 345 343 343 344 343 342
301 300 292 291 296 302 304 306 308 313 311 311 309 308 308 315 324 336 340 340 345 348 355 358 360 361 361 361 360 359 359 359 359 359 358 358 357 356 356 355 353 352 350 349 346 346 346 345 343
298 296 294 293 297 300 305 307 307 310 313 310 311 307 309 311 315 336 336 337 342 348 353 356 356 358 361 360 359 358 357 357 358 357 357 357 357 356 356 355 355 354 352 351 350 348 347 346 345
299 296 292 295 296 298 305 307 306 308 313 317 315 307 304 310 316 326 336 335 337 346 351 353 354 355 356 357 360 359 358 358 357 357 357 357 357 356 356 353 354 354 353 351 351 350 349 347 346
301 291 290 293 297 300 304 304 308 310 311 314 313 313 313 316 331 331 333 334 341 344 344 351 352 353 353 355 357 359 359 358 358 357 357 355 350 350 351 352 352 354 353 353 352 351 350 348 347
295 290 292 299 300 301 301 302 304 305 306 307 309 314 314 315 331 334 333 334 337 339 341 348 350 350 351 353 354 354 355 356 353 353 352 348 346 345 349 350 353 353 355 354 353 352 351 348 339
295 292 296 299 299 300 300 301 304 303 301 305 306 311 312 316 324 331 335 336 338 340 342 343 347 348 348 351 351 353 355 353 352 352 351 344 345 343 346 342 344 344 350 345 347 345 344 341 340
291 297 298 300 302 301 300 302 300 302 302 306 308 311 312 310 321 327 333 330 331 340 341 343 344 344 343 346 349 349 351 350 349 349 347 343 339 338 338 339 337 339 341 342 340 339 339 340 339
291 295 297 300 300 299 302 300 300 301 304 307 310 312 310 308 311 318 323 322 326 334 341 342 343 344 343 344 342 343 345 347 347 346 345 344 339 335 333 334 336 337 338 339 337 337 337 337 337
293 293 295 296 297 297 297 299 299 302 305 305 306 310 309 309 312 315 318 321 324 328 332 339 341 343 340 345 343 341 340 342 341 344 344 344 341 337 334 332 333 335 337 337 338 337 336 334 334
294 290 293 294 295 295 297 295 296 302 304 304 307 309 310 309 313 316 317 318 322 327 329 336 340 341 339 344 343 341 340 341 341 340 342 343 341 338 335 333 333 336 337 337 337 338 337 333 333
290 288 285 292 295 297 295 291 298 300 301 303 304 307 311 310 310 313 317 317 319 322 327 333 342 340 341 343 345 344 343 339 341 340 341 343 343 342 339 335 335 338 338 338 337 336 335 333 332
286 282 284 289 294 294 294 290 297 300 299 298 300 303 308 310 311 310 314 317 318 323 327 330 337 341 343 345 346 345 344 341 339 340 342 343 344 343 343 342 341 339 337 335 335 333 330 327 327
283 283 286 286 292 292 291 291 294 297 297 297 298 301 306 308 311 313 312 314 317 316 321 326 328 336 338 341 342 340 342 342 344 343 341 341 344 345 341 341 340 342 339 337 334 332 330 329 328
289 287 286 290 293 292 290 291 293 295 295 295 296 297 302 307 311 309 311 314 317 317 318 321 324 325 328 325 327 329 339 341 338 342 344 342 341 345 344 342 340 338 337 338 335 332 331 329 330
290 287 287 290 294 291 290 290 293 293 294 295 296 296 296 299 301 309 312 315 317 318 318 318 318 321 324 323 322 324 328 330 332 335 340 343 343 342 341 342 341 339 339 336 334 332 330 329 330
289 287 288 288 292 291 290 288 290 293 295 297 298 297 297 300 301 306 312 314 316 316 318 318 317 318 319 320 321 323 323 322 323 325 329 332 333 335 336 337 340 340 338 338 337 334 331 331 329
285 292 292 291 287 282 289 282 287 290 292 294 296 296 296 297 302 307 310 312 312 316 316 318 318 316 317 319 317 317 317 316 319 321 324 328 331 332 336 340 341 341 339 336 336 337 335 330 331
289 294 291 290 286 282 284 280 283 288 289 292 294 296 298 298 299 304 308 312 313 313 314 314 315 315 316 317 315 314 314 316 318 319 320 321 325 329 332 333 332 333 338 338 339 336 335 333 332
295 290 287 285 282 277 283 282 282 286 289 291 294 297 299 300 298 302 308 310 310 311 313 315 314 313 316 317 316 315 313 313 314 316 317 318 320 322 326 326 328 328 331 336 339 340 336 336 334
289 283 277 276 276 279 285 282 285 289 293 294 296 297 298 299 300 300 303 306 309 310 310 313 312 312 315 315 315 315 315 314 315 314 316 318 319 319 321 323 323 325 331 339 340 339 339 336 334
287 285 279 275 275 279 286 280 286 294 297 298 298 298 297 298 299 301 302 308 311 311 310 313 311 311 313 313 313 313 312 313 314 314 317 315 316 318 322 323 326 328 329 328 329 336 339 340 338
289 284 286 282 284 278 282 286 292 295 296 297 297 297 296 297 299 300 304 306 309 310 310 313 312 311 313 313 312 312 312 312 313 314 315 314 315 320 319 322 323 322 324 328 330 329 332 337 337
292 293 283 283 277 275 281 283 284 290 291 295 296 296 296 298 300 301 301 302 304 306 309 311 313 312 311 313 312 312 313 314 314 314 314 314 315 318 320 319 319 321 323 327 326 325 327 329 333
289 288 289 287 284 277 277 280 288 289 292 294 297 297 297 297 299 300 303 301 301 301 302 307 308 309 308 309 311 311 312 312 313 313 314 315 315 316 316 315 317 320 324 321 321 322 325 326 328
293 290 290 283 282 285 281 281 294 293 295 297 298 300 300 299 299 303 305 305 303 300 300 301 302 304 307 309 310 310 311 311 310 313 315 316 315 314 313 315 318 321 320 320 320 319 319 320 322
Wind_Speed
8 8 2 4 4 5 2 3 2 7 10 9 4 4 2 5 1 5 3 9 16 16 14 13 14 15 16 16 17 17 17 18 18 18 18 18 17 16 16 15 14 15 14 13 11 10 10 9 9
6 5 5 3 5 2 4 4 5 2 4 10 5 6 9 4 3 3 7 7 16 15 13 13 16 17 15 16 17 16 16 16 16 16 16 16 15 14 14 13 12 14 13 12 11 9 8 7 7
7 3 4 4 3 6 4 5 2 4 6 6 2 4 3 3 3 6 4 12 13 13 13 15 18 17 17 17 18 16 16 15 15 15 14 14 14 13 12 11 11 12 11 11 10 9 8 6 5
4 5 5 5 5 7 3 3 3 3 9 11 3 6 4 3 5 6 13 17 15 10 10 18 19 18 18 18 18 18 15 15 15 14 14 14 14 12 10 9 9 9 10 8 8 7 6 5 4
4 3 4 1 6 6 3 4 4 3 5 6 6 2 3 9 8 10 14 13 15 12 10 14 19 17 16 17 18 18 17 13 14 14 13 13 13 11 10 9 9 9 8 7 6 6 5 5 4
3 3 3 3 6 5 4 3 3 3 4 2 6 4 3 6 2 6 9 11 10 11 8 10 16 17 17 16 17 18 19 17 13 13 12 12 11 11 10 10 9 8 7 7 7 6 5 5 4
5 4 4 3 4 6 1 5 4 6 5 5 3 2 3 5 3 8 10 7 9 10 8 8 10 16 16 16 16 16 17 18 18 14 12 11 11 10 10 8 8 8 7 8 8 7 6 4 4
5 5 3 3 4 8 1 7 1 7 7 8 8 4 5 5 4 8 8 8 7 7 9 13 11 13 13 9 15 14 13 14 15 16 14 12 11 10 9 9 8 9 8 9 8 7 6 5 4
4 4 3 5 4 7 3 7 4 7 7 6 7 8 4 4 3 14 10 7 6 7 6 12 13 11 10 9 11 12 14 12 12 12 13 10 5 6 7 7 9 10 9 10 10 7 5 4 6
4 4 9 6 4 7 1 4 6 7 10 8 4 5 8 2 9 14 12 10 10 9 9 10 13 13 10 8 10 8 8 6 5 4 5 4 5 5 6 7 11 11 10 11 10 7 5 5 4
5 6 5 5 6 7 11 3 3 5 7 7 10 9 7 6 8 11 10 15 15 12 9 10 12 12 9 7 7 7 6 7 7 10 9 3 3 4 4 3 3 3 8 4 4 3 3 4 4
2 6 4 7 7 6 8 4 3 7 12 9 9 6 7 7 9 13 12 13 13 16 14 12 10 9 7 4 7 6 7 8 7 7 7 6 3 3 4 3 4 4 4 5 4 3 4 5 6
5 6 7 10 10 7 10 14 12 13 12 11 10 5 8 9 6 5 6 4 8 11 13 16 15 13 10 8 4 5 5 5 8 7 8 6 6 4 3 4 4 4 3 4 4 4 4 5 6
5 4 7 7 7 4 5 12 4 5 10 12 11 11 10 10 10 5 6 7 6 8 10 11 12 11 8 8 9 6 5 5 4 6 8 9 7 8 5 5 5 5 4 4 4 5 4 4 5
3 4 6 4 3 5 5 9 11 5 5 9 10 8 8 9 10 13 10 8 9 7 10 15 16 15 13 11 9 6 6 6 6 5 7 10 9 8 7 5 4 5 4 5 4 4 3 4 4
4 4 2 5 1 6 4 11 13 5 7 10 10 8 9 11 12 10 14 12 9 7 10 10 11 16 14 11 8 7 2 3 3 3 4 9 8 8 7 5 5 6 4 4 3 3 4 4 4
5 3 3 7 3 3 6 7 7 12 4 9 10 10 9 12 10 9 11 14 14 14 13 12 12 15 14 11 8 7 12 4 2 2 3 7 8 8 7 7 6 5 4 4 4 4 3 4 3
6 3 3 4 5 3 6 9 7 7 5 11 10 9 11 10 17 14 12 10 10 8 6 7 5 8 7 5 6 5 6 6 8 6 4 7 7 7 6 5 5 5 3 4 3 5 4 4 3
4 4 7 6 10 4 7 11 9 9 7 9 11 8 10 12 11 7 7 6 5 6 8 9 10 7 6 3 4 3 7 8 8 8 13 11 7 3 5 2 1 5 5 6 4 2 3 3 1
8 8 10 7 7 5 7 13 9 4 6 7 9 10 10 8 8 6 8 10 11 12 10 8 7 7 6 4 3 3 3 2 3 1 3 15 6 3 2 3 2 5 4 5 5 4 3 2 4
5 5 7 8 3 3 5 9 6 4 5 7 8 5 4 8 10 8 7 12 12 11 12 11 9 8 7 6 3 2 1 2 2 2 1 3 4 9 10 12 7 3 3 7 6 5 6 6 1
5 6 7 6 2 6 1 14 6 6 5 5 10 9 9 8 8 7 8 7 10 12 7 9 10 9 7 8 5 5 4 2 2 1 1 5 8 7 7 1 6 8 4 5 7 5 7 3 9
9 7 7 6 5 4 4 6 2 3 9 11 9 11 10 9 9 11 11 14 11 7 10 7 8 8 7 8 8 5 4 2 1 0 2 4 4 4 3 1 6 3 5 4 8 6 8 6 8
2 2 4 5 4 3 8 7 4 4 9 6 5 9 9 10 9 13 15 10 7 6 7 8 9 7 8 8 8 9 8 6 3 2 1 1 1 2 2 4 4 6 6 7 3 6 6 11 8
4 6 4 4 2 11 9 7 10 7 8 12 17 10 9 8 9 11 12 13 12 12 9 7 8 8 7 7 6 6 6 6 5 3 2 1 0 1 2 1 2 1 4 6 3 4 9 8 7
7 9 7 8 7 7 4 7 8 5 7 9 9 8 4 7 7 10 14 17 18 17 13 11 9 6 7 8 8 7 7 5 5 5 5 4 3 3 2 1 2 2 3 3 3 4 6 8 8
3 4 5 4 2 1 4 7 7 11 13 8 10 3 4 6 7 8 5 4 9 14 12 13 11 8 9 10 7 7 6 6 7 8 5 4 4 3 5 4 3 4 3 4 3 3 5 5 7
5 4 2 2 4 10 4 5 8 9 10 13 16 6 2 4 7 8 6 6 4 5 11 8 10 14 14 11 9 8 10 8 8 5 7 7 6 6 6 6 6 4 4 4 4 3 5 5 5
1 2 4 2 2 3 5 6 7 3 1 7 14 14 5 5 6 4 6 3 2 1 4 6 7 9 8 9 9 8 8 8 7 7 7 8 6 7 7 7 6 4 3 4 4 4 6 6 6
3 1 4 4 5 5 4 7 7 2 1 2 6 15 17 9 3 3 5 8 3 3 3 5 5 5 7 7 9 10 10 8 8 9 11 8 9 7 8 7 6 5 6 6 5 6 6 6 7
Wind_Direction
321 314 13 36 48 61 306 273 229 359 0 331 294 89 158 118 242 208 286 156 133 147 150 152 150 142 139 137 129 128 128 131 133 134 135 135 133 132 133 136 137 136 136 137 139 137 136 131 129
321 337 38 64 87 90 254 226 359 6 271 297 325 11 37 2 84 83 103 146 145 145 148 148 153 145 146 142 132 131 131 131 131 131 132 131 129 131 137 141 143 142 142 140 141 138 138 135 128
323 56 77 96 126 192 199 222 66 33 347 16 20 70 37 357 122 170 119 138 133 146 151 153 154 151 152 148 138 136 136 133 132 131 133 132 132 137 143 148 147 144 142 147 150 150 149 145 140
350 11 35 90 224 259 219 303 36 60 9 0 341 26 353 262 301 158 144 142 139 143 156 156 155 156 158 151 143 137 141 138 138 140 139 139 141 145 148 152 150 148 149 158 160 163 158 157 172
45 43 62 78 258 261 271 327 353 65 127 357 359 21 1 342 17 117 138 148 150 152 158 157 155 155 158 154 147 144 143 144 146 146 147 150 150 151 155 159 160 161 163 167 181 178 178 188 204
48 95 81 228 249 268 306 297 253 169 162 125 13 83 337 312 11 124 143 150 151 144 142 152 160 160 161 161 156 154 152 151 155 154 155 157 160 162 165 167 171 174 175 180 197 198 203 218 242
118 93 207 194 266 300 234 323 42 318 171 191 181 145 218 314 282 177 152 128 136 138 133 149 163 170 165 164 163 164 162 160 159 162 164 167 169 172 173 179 181 188 190 195 205 212 222 238 276
109 95 192 232 235 268 308 339 348 351 252 138 133 221 216 230 227 143 129 122 123 136 149 160 166 174 174 169 166 167 170 169 167 166 171 173 178 183 185 190 198 202 207 215 219 221 227 243 268
110 72 204 219 202 249 4 8 329 317 323 3 199 166 204 142 109 115 111 107 117 139 144 166 168 176 175 167 170 164 171 175 175 174 177 174 169 186 202 202 215 219 223 231 231 229 232 263 279
123 152 215 216 217 281 107 338 332 340 335 323 341 25 135 172 145 125 145 148 161 166 167 170 174 175 171 175 176 163 167 169 171 184 186 180 176 177 192 214 222 229 235 241 247 247 230 229 243
182 196 217 238 244 263 288 284 227 276 294 250 277 193 208 171 130 138 158 171 183 172 174 171 170 175 178 176 179 177 172 178 187 189 183 191 198 204 201 192 218 219 242 246 252 244 226 206 235
193 243 207 270 247 262 267 259 256 216 248 255 249 221 200 197 157 153 166 174 165 178 177 164 160 159 175 156 184 193 187 178 186 187 190 167 197 224 217 216 219 213 206 239 216 205 198 224 231
184 251 268 260 268 242 263 269 256 257 261 263 277 224 186 175 164 158 158 165 163 175 173 179 169 174 181 160 186 179 197 217 183 184 184 187 178 206 234 233 227 229 206 222 222 207 211 221 227
203 230 257 271 255 252 233 267 215 262 242 245 248 218 194 184 177 138 148 172 188 160 165 173 161 163 172 184 181 199 188 191 216 196 200 190 208 183 192 226 234 229 216 213 216 220 211 215 226
278 311 325 244 256 233 191 281 255 230 257 257 252 208 244 206 167 174 169 184 172 191 163 177 170 167 180 187 191 188 204 191 192 209 217 196 194 225 194 189 234 247 223 222 224 230 229 221 220
0 59 315 287 112 274 147 272 289 236 206 235 251 249 209 222 213 182 179 178 187 172 177 173 173 173 175 184 181 149 302 218 199 221 197 220 204 215 219 180 202 237 230 217 204 220 247 242 215
358 245 249 310 238 240 197 275 276 316 299 231 242 254 232 226 234 225 190 185 182 186 177 175 174 173 169 171 163 161 165 149 211 280 271 242 215 192 230 252 188 212 226 227 209 219 201 264 242
233 223 249 240 277 176 282 273 269 262 291 292 289 242 243 228 225 211 210 196 184 179 183 160 148 149 146 142 155 150 146 144 203 162 256 222 252 194 178 236 266 185 214 246 214 217 201 225 247
239 232 247 257 267 223 245 271 272 287 308 291 289 280 239 235 230 244 236 184 153 166 165 173 155 166 139 134 144 151 182 196 197 176 184 232 203 191 192 208 223 263 217 245 228 232 213 284 117
235 253 274 278 247 189 268 272 281 255 255 269 283 295 266 259 260 249 206 185 188 188 185 166 178 161 158 139 143 152 173 180 147 84 208 164 225 328 260 139 229 241 274 260 244 207 252 255 158
248 206 246 221 250 278 268 279 295 261 250 274 288 281 290 269 281 270 210 213 188 185 185 172 160 159 147 139 115 92 98 124 124 138 165 213 233 218 179 173 161 191 239 268 264 222 209 250 246
244 216 231 233 161 257 176 283 255 271 284 291 299 296 279 249 250 246 250 221 211 204 177 162 163 162 158 157 145 150 162 151 207 201 203 191 207 214 165 153 115 151 198 266 263 247 252 160 260
237 237 233 233 203 121 268 277 229 354 288 277 251 265 266 260 235 238 213 222 216 181 177 173 156 161 154 156 154 148 157 180 202 301 357 354 4 13 335 301 153 175 141 216 270 261 247 236 242
251 329 58 54 110 203 234 228 208 239 253 297 251 247 278 281 251 242 226 207 189 165 164 167 161 173 170 167 164 162 170 173 185 181 205 303 321 342 353 39 315 298 236 197 218 264 257 248 238
135 74 317 319 280 255 220 251 256 249 267 246 275 276 282 291 292 266 224 187 176 174 181 174 171 185 180 166 166 172 185 180 186 208 220 211 269 310 292 158 266 332 355 304 271 266 265 262 257
209 162 173 250 245 255 315 248 263 244 259 266 265 242 283 354 344 308 236 199 183 176 175 175 183 176 184 186 194 197 193 185 192 196 193 206 211 224 250 254 254 231 232 249 256 258 240 250 246
213 203 216 132 357 15 223 293 299 271 290 317 295 205 81 54 43 14 25 213 199 167 181 182 177 194 193 195 191 200 195 191 205 212 197 201 197 204 237 228 225 268 263 260 265 267 273 256 252
169 163 280 360 278 262 242 256 250 292 307 336 328 281 327 54 62 74 46 6 3 256 193 191 188 195 199 199 195 198 196 199 205 202 207 207 217 199 208 218 211 220 227 246 264 271 279 282 284
277 185 62 125 140 250 274 252 211 196 142 19 343 320 245 157 135 79 74 23 224 258 297 263 213 215 204 198 203 194 202 203 203 195 213 212 212 214 207 217 225 236 241 241 243 260 272 278 286
61 72 163 183 221 208 198 258 271 219 204 9 323 314 309 299 232 94 62 345 358 338 229 232 262 282 290 266 212 207 208 198 192 204 217 209 204 204 208 204 203 212 226 233 216 237 264 273 279